This is the latest recevied weather packets stored in our database for station/object W5ITZ. If no packets are shown the sender has not sent any weather packets the latest 10 day(s).
| Time | Temp. | Humidity | Pressure | Rain* | Wind** | Luminosity | Snow |
|---|---|---|---|---|---|---|---|
| 1777129519 | 26.67° C | 86% | 1008.8 hPa | 0 mm | - | 172 W/m² | - |
| 1777129218 | 26.11° C | 88% | 1008.9 hPa | 0 mm | - | 202 W/m² | - |
| 1777128915 | 26.11° C | 88% | 1009 hPa | 0 mm | - | 204 W/m² | - |
| 1777128611 | 26.11° C | 88% | 1008.7 hPa | 0 mm | - | 137 W/m² | - |
| 1777128309 | 26.11° C | 89% | 1008.8 hPa | 0 mm | - | 173 W/m² | - |
| 1777128006 | 26.11° C | 90% | 1008.7 hPa | 0 mm | - | 155 W/m² | - |
| 1777127704 | 26.11° C | 90% | 1008.7 hPa | 0 mm | - | 205 W/m² | - |
| 1777127400 | 26.11° C | 90% | 1008.8 hPa | 0 mm | - | 192 W/m² | - |
| 1777127096 | 25.56° C | 91% | 1008.6 hPa | 0 mm | - | 313 W/m² | - |
| 1777126792 | 25.56° C | 92% | 1008.5 hPa | 0 mm | - | 358 W/m² | - |
| 1777126488 | 25.56° C | 92% | 1008.5 hPa | 0 mm | - | 331 W/m² | - |
| 1777126184 | 25.56° C | 93% | 1008.4 hPa | 0 mm | - | 338 W/m² | - |
| 1777125880 | 25.56° C | 94% | 1008.5 hPa | 0 mm | - | 284 W/m² | - |
| 1777125577 | 25° C | 95% | 1008.6 hPa | 0 mm | - | 264 W/m² | - |
| 1777125272 | 25° C | 96% | 1008.5 hPa | 0 mm | - | 207 W/m² | - |
| 1777124972 | 24.44° C | 96% | 1008.7 hPa | 0 mm | - | 162 W/m² | - |
| 1777124670 | 24.44° C | 96% | 1008.7 hPa | 0 mm | - | 151 W/m² | - |
| 1777124364 | 24.44° C | 96% | 1008.8 hPa | 0 mm | - | 148 W/m² | - |
| 1777124061 | 24.44° C | 96% | 1008.7 hPa | 0 mm | - | 140 W/m² | - |
| 1777123759 | 24.44° C | 96% | 1008.8 hPa | 0 mm | - | 118 W/m² | - |
| 1777123455 | 24.44° C | 97% | 1008.7 hPa | 0 mm | - | 121 W/m² | - |
| 1777123150 | 24.44° C | 97% | 1008.6 hPa | 0 mm | - | 120 W/m² | - |
| 1777122847 | 24.44° C | 97% | 1008.6 hPa | 0 mm | - | 122 W/m² | - |
* Rain latest hour (hover to see other rain measurements)
** Current wind speed in m/s (hover to see current wind gust speed)